User: anonymous   Login
Location: Lourdes
(43.1000°N, 0.0500°W)
Time: 19:36:48
(UTC+00:00)
Language:

Cosmos 1680 Rocket - Orbit

View from above orbital plane
View from above orbital plane
View from above satellite
View from above satellite

Ground track
Ground track

The orbit data is extracted from the following two-line orbital elements,

1 16012U 85079B   21060.30226080  .00000053  00000-0  26804-4 0  9991
2 16012  74.0605 173.2134 0013771  99.5429 260.7281 14.36362101857869
Epoch (UTC): 01 March 2021 07:15:15
Eccentricity: 0.0013771
inclination: 74.0605°
perigee height: 761 km
apogee height: 780 km
right ascension of ascending node: 173.2134°
argument of perigee: 99.5429°
revolutions per day: 14.36362101
mean anomaly at epoch: 260.7281°
orbit number at epoch: 85786

The dashed part of the orbit path shows where the satellite is in the earth's shadow,  

DLR